Location: Oak Glen
(34.0495°N, 116.9470°E)
Time: 11:34:24
(UTC-07:00)

Tiangong 1 - Pass Details

Date: 08 October 2017
Orbit: 294 x 320 km, 42.8° (Epoch: 18 October)

Event Time Altitude Azimuth Distance (km) Brightness Sun altitude
Rises 03:55:00 0° 285° (WNW) 2,029 6.4 -14.8°
Reaches altitude 10° 03:57:30 10° 310° (NW) 1,195 4.3 -15.3°
Maximum altitude 03:59:12 15° 350° (N) 949 3.2 -15.7°
Enters shadow 04:00:08 13° 14° (NNE) 1,028 3.1 -15.9°
